Flag for U.S.A. Weather past 2 weeks in Stockton, California, U.S.A.

Now
72 °F

Sunny.


Feels Like: 77 °F
Forecast: 59 / 82 °F
Wind: 12 mph from West

Location: Stockton Metropolitan Airport

Current Time: Sep 3, 2015 at 10:51:09 AM

Latest Report: Sep 3, 2015 at 9:55 AM


Visibility: 10 mi

Pressure: 29.90 "Hg

Humidity: 49%

Dew point: 52 °F

Location of StocktonLocation

Historic Weather in Stockton — Graph

°F

Stockton temperature yesterday

Maximum temperature yesterday: 86 °F (at 2:55 PM)
Minimum temperature yesterday: 62 °F (at 4:55 AM)
Average temperature yesterday: 71 °F

Past Weeks' High & Low Weather Summary

 TemperatureHumidityPressure
High103 °F (Aug 27, 3:55 PM)90% (Aug 20, 6:55 AM)30.02 "Hg (Aug 20, 6:55 AM)
Low57 °F (Aug 22, 5:55 AM)14% (Aug 27, 2:55 PM)29.77 "Hg (Aug 20, 5:55 PM)
Average76 °F51%29.89 "Hg
* Reported Aug 19 8:55 AM — Sep 3 8:55 AM, Stockton, Weather by CustomWeather, © 2015

Note: Actual official high and low records may vary slightly from our data, if they occured in-between our weather recording intervals... More about our weather records

Advertising

Stockton weather history for previous 24 hours

 ConditionsComfort  
Time TempWeatherWind HumidityBarometerVisibility
8:55 AM
Thu, Sep 3
69 °FSunny.12 mph59%29.90 "Hg10 mi
7:55 AM65 °FSunny.16 mph70%29.90 "Hg10 mi
6:55 AM62 °FClear.13 mph75%29.88 "Hg10 mi
5:55 AM62 °FClear.12 mph73%29.86 "Hg10 mi
4:55 AM63 °FClear.9 mph68%29.86 "Hg10 mi
3:55 AM63 °FClear.9 mph65%29.87 "Hg10 mi
2:55 AM63 °FClear.7 mph68%29.86 "Hg10 mi
1:55 AM63 °FClear.8 mph70%29.86 "Hg10 mi
12:55 AM64 °FClear.8 mph70%29.87 "Hg10 mi
11:55 PM
Wed, Sep 2
64 °FClear.8 mph70%29.87 "Hg10 mi
10:55 PM65 °FClear.12 mph70%29.87 "Hg10 mi
9:55 PM66 °FClear.14 mph65%29.86 "Hg10 mi
8:55 PM67 °FClear.13 mph66%29.85 "Hg10 mi
7:55 PM69 °FSunny.22 mph61%29.84 "Hg10 mi
6:55 PM73 °FSunny.22 mph53%29.83 "Hg10 mi
5:55 PM79 °FSunny.22 mph42%29.83 "Hg10 mi
4:55 PM82 °FSunny.25 mph35%29.83 "Hg9 mi
3:55 PM85 °FSunny.23 mph27%29.84 "Hg10 mi
2:55 PM86 °FSunny.18 mph30%29.85 "Hg10 mi
1:55 PM85 °FSunny.17 mph29%29.87 "Hg10 mi
12:55 PM83 °FSunny.15 mph34%29.88 "Hg10 mi
11:55 AM80 °FSunny.14 mph36%29.90 "Hg10 mi
10:55 AM77 °FSunny.13 mph44%29.90 "Hg10 mi
Weather by CustomWeather, © 2015

See weather overviewHow to use our weather pages